Location: Unspecified
(43.4680°N, 87.1740°E)
Time: 09:19:51
(UTC+00:00)

NOSS 0 Rocket - Pass Details

Date: 06 August 2021
Orbit: 936 x 954 km, 70.0° (Epoch: 18 September)

Event Time Altitude Azimuth Distance (km) Brightness Sun altitude
Rises 14:45:41 0° 340° (NNW) 3,637 8.1 -13.0°
Reaches altitude 10° 14:48:48 10° 355° (N) 2,686 7.0 -13.4°
Maximum altitude 14:53:42 24° 47° (NE) 1,883 5.4 -14.1°
Enters shadow 14:57:45 13° 93° (E) 2,455 5.6 -14.7°
